Location: Kitt Peak
(31.9514°N, 111.6156°W)
Time: 09:13:44
(UTC-07:00)

ISS - Pass Details

Date: 08 December 2021
Orbit: 413 x 422 km, 51.6° (Epoch: 28 January)

Event Time Altitude Azimuth Distance (km) Brightness Sun altitude
Rises 19:14:48 0° 299° (WNW) 2,367 0.8 -23.2°
Reaches altitude 10° 19:17:14 10° 283° (WNW) 1,497 -0.1 -23.8°
Maximum altitude 19:19:49 21° 232° (SW) 1,004 -1.2 -24.3°
Enters shadow 19:21:44 13° 190° (S) 1,293 -1.1 -24.7°
